GW4132 Weather Reports


time (UTC)temp
C
wind
direction
speed
KPH
gust
KPH
rain 1hr
cm
rain 24hr
cm
rain mn
cm
humidity
%
barometer
mb
20260504214547 21 173 3.2 11.3 0.00 0.00 0.00 44 1016.9
20260504213045 21 124 4.8 11.3 0.00 0.00 0.00 44 1017.1
20260504211548 21 59 3.2 14.5 0.00 0.00 0.00 46 1017.0
20260504210050 21 57 3.2 9.7 0.00 0.00 0.00 46 1017.0
20260504204539 21 31 4.8 20.9 0.00 0.00 0.00 44 1017.0
20260504203050 21 245 3.2 11.3 0.00 0.00 0.00 44 1017.1
20260504201949 21 86 3.2 9.7 0.00 0.00 0.00 44 1017.0
20260504200049 21 56 3.2 9.7 0.00 0.00 0.00 45 1016.9
20260504194552 21 75 4.8 8.0 0.00 0.00 0.00 43 1017.0
20260504193049 21 121 3.2 8.0 0.00 0.00 0.00 45 1017.0
20260504191615 21 22 1.6 9.7 0.00 0.00 0.00 42 1017.2
20260504190110 21 56 1.6 9.7 0.00 0.00 0.00 46 1017.1
20260504184610 21 64 3.2 8.0 0.00 0.00 0.00 44 1017.1
20260504183056 21 153 3.2 8.0 0.00 0.00 0.00 44 1017.0
20260504181612 20 79 1.6 12.9 0.00 0.00 0.00 44 1017.0
20260504180615 20 107 3.2 9.7 0.00 0.00 0.00 45 1017.0
20260504174552 20 68 3.2 9.7 0.00 0.00 0.00 43 1016.9
20260504173104 20 127 3.2 6.4 0.00 0.00 0.00 43 1016.7
20260504171558 19 165 1.6 8.0 0.00 0.00 0.00 45 1016.7
20260504160111 14 13 0.0 1.6 0.00 0.00 0.00 64 1016.5
20260504081555 8 5 0.0 3.2 0.00 0.00 0.00 78 1017.1
20260504060108 10 5 0.0 3.2 0.00 0.00 0.00 74 1017.2
20260504050115 10 5 0.0 1.6 0.00 0.00 0.00 70 1017.3
20260504044542 11 5 0.0 1.6 0.00 0.00 0.00 70 1017.6
20260504043050 11 5 0.0 3.2 0.00 0.00 0.00 68 1017.4
20260504041549 11 5 0.0 3.2 0.00 0.00 0.00 66 1017.4
20260504040116 12 5 0.0 3.2 0.00 0.00 0.00 63 1017.6
20260504034604 12 5 0.0 3.2 0.00 0.00 0.00 63 1017.2
20260504033058 13 9 1.6 3.2 0.00 0.00 0.00 59 1017.1
20260504031624 13 352 1.6 3.2 0.00 0.00 0.00 58 1017.0
20260504030116 14 333 1.6 4.8 0.00 0.00 0.00 54 1017.2
20260504024554 14 17 1.6 3.2 0.00 0.00 0.00 54 1017.0
20260504023108 15 352 0.0 3.2 0.00 0.00 0.00 51 1017.1
20260504021605 16 331 0.0 3.2 0.00 0.00 0.00 47 1017.3
20260504020059 16 323 0.0 3.2 0.00 0.00 0.00 41 1017.3
20260504014608 17 313 0.0 4.8 0.00 0.00 0.00 37 1017.2
20260504013056 17 340 0.0 8.0 0.00 0.00 0.00 34 1017.4
20260504011608 18 55 1.6 8.0 0.00 0.00 0.00 37 1017.6
20260504010112 18 62 1.6 8.0 0.00 0.00 0.00 33 1017.7
20260504004612 19 54 1.6 8.0 0.00 0.00 0.00 35 1017.9
20260504003104 20 245 3.2 11.3 0.00 0.00 0.00 34 1018.0
20260504001606 20 26 1.6 6.4 0.00 0.00 0.00 34 1018.2
20260504000139 21 130 3.2 11.3 0.00 0.00 0.00 36 1018.1
20260503234611 21 20 3.2 9.7 0.00 0.00 0.00 38 1018.3
20260503233057 22 63 1.6 11.3 0.00 0.00 0.00 36 1018.3
20260503231557 22 11 3.2 12.9 0.00 0.00 0.00 34 1018.3
20260503230100 22 126 1.6 9.7 0.00 0.00 0.00 33 1018.5
20260503224556 22 62 3.2 16.1 0.00 0.00 0.00 33 1018.7
20260503223056 22 32 4.8 12.9 0.00 0.00 0.00 35 1018.9
20260503221552 23 53 3.2 11.3 0.00 0.00 0.00 34 1019.1
20260503220055 23 244 4.8 14.5 0.00 0.00 0.00 31 1019.2